Time,TemperatureF,DewpointF,PressureIn,WindDirection,WindDirectionDegrees,WindSpeedMPH,WindSpeedGustMPH,Humidity,HourlyPrecipIn,Conditions,Clouds,dailyrainin,SoftwareType,DateUTC
2013-08-30 00:04:00,73.5,70.0,29.88,SSE,163,0.0,-999.0,88,-99.99,,,0.00,weatherlink.com 1.10,2013-08-30 04:04:00,
2013-08-30 00:19:00,73.0,69.0,29.88,SSE,163,0.0,-999.0,88,-99.99,,,0.00,weatherlink.com 1.10,2013-08-30 04:19:00,
2013-08-30 00:34:00,72.8,70.0,29.88,SSE,163,0.0,-999.0,89,-99.99,,,0.00,weatherlink.com 1.10,2013-08-30 04:34:00,
2013-08-30 00:49:00,72.5,70.0,29.87,SSE,163,0.0,-999.0,90,-99.99,,,0.00,weatherlink.com 1.10,2013-08-30 04:49:00,
2013-08-30 01:04:00,72.2,69.0,29.87,SSE,163,0.0,-999.0,90,-99.99,,,0.00,weatherlink.com 1.10,2013-08-30 05:04:00,
2013-08-30 01:19:00,71.8,69.0,29.88,SSE,163,0.0,-999.0,90,-99.99,,,0.00,weatherlink.com 1.10,2013-08-30 05:19:00,
2013-08-30 01:34:00,71.6,69.0,29.88,SSE,163,0.0,-999.0,91,-99.99,,,0.00,weatherlink.com 1.10,2013-08-30 05:34:00,
2013-08-30 01:49:00,71.3,69.0,29.88,SSE,163,0.0,-999.0,91,-99.99,,,0.00,weatherlink.com 1.10,2013-08-30 05:49:00,
2013-08-30 02:04:00,71.3,69.0,29.87,SSE,163,0.0,-999.0,91,-99.99,,,0.00,weatherlink.com 1.10,2013-08-30 06:04:00,
2013-08-30 02:19:00,71.1,68.0,29.87,SSE,162,0.0,-999.0,91,-99.99,,,0.00,weatherlink.com 1.10,2013-08-30 06:19:00,
2013-08-30 02:34:00,70.8,68.0,29.87,SSE,163,0.0,-999.0,91,-99.99,,,0.00,weatherlink.com 1.10,2013-08-30 06:34:00,
2013-08-30 02:49:00,70.5,68.0,29.87,SSE,163,0.0,-999.0,91,-99.99,,,0.00,weatherlink.com 1.10,2013-08-30 06:49:00,
2013-08-30 03:04:00,70.1,67.0,29.87,SSE,163,0.0,-999.0,91,-99.99,,,0.00,weatherlink.com 1.10,2013-08-30 07:04:00,
2013-08-30 03:19:00,70.0,67.0,29.87,SSE,163,0.0,-999.0,91,-99.99,,,0.00,weatherlink.com 1.10,2013-08-30 07:19:00,
2013-08-30 03:34:00,69.8,67.0,29.86,SSE,163,0.0,-999.0,91,-99.99,,,0.00,weatherlink.com 1.10,2013-08-30 07:34:00,
2013-08-30 03:49:00,69.5,67.0,29.86,SSE,163,0.0,-999.0,91,-99.99,,,0.00,weatherlink.com 1.10,2013-08-30 07:49:00,
2013-08-30 04:04:00,69.3,67.0,29.86,SSE,163,0.0,-999.0,91,-99.99,,,0.00,weatherlink.com 1.10,2013-08-30 08:04:00,
2013-08-30 04:19:00,69.1,67.0,29.86,SSE,162,0.0,-999.0,92,-99.99,,,0.00,weatherlink.com 1.10,2013-08-30 08:19:00,
2013-08-30 04:34:00,69.0,67.0,29.86,SSE,163,0.0,-999.0,92,-99.99,,,0.00,weatherlink.com 1.10,2013-08-30 08:34:00,
2013-08-30 04:49:00,68.8,66.0,29.86,SSE,163,0.0,-999.0,92,-99.99,,,0.00,weatherlink.com 1.10,2013-08-30 08:49:00,
2013-08-30 05:04:00,68.6,66.0,29.85,SSE,163,0.0,-999.0,92,-99.99,,,0.00,weatherlink.com 1.10,2013-08-30 09:04:00,
2013-08-30 05:19:00,68.6,67.0,29.85,SSE,162,0.0,-999.0,93,-99.99,,,0.00,weatherlink.com 1.10,2013-08-30 09:19:00,
2013-08-30 05:34:00,68.3,66.0,29.85,SSE,162,0.0,-999.0,93,-99.99,,,0.00,weatherlink.com 1.10,2013-08-30 09:34:00,
2013-08-30 05:49:00,68.1,66.0,29.84,SSE,163,0.0,-999.0,93,-99.99,,,0.00,weatherlink.com 1.10,2013-08-30 09:49:00,
2013-08-30 06:04:00,67.8,66.0,29.84,SSE,163,0.0,-999.0,93,-99.99,,,0.00,weatherlink.com 1.10,2013-08-30 10:04:00,
2013-08-30 06:19:00,67.8,66.0,29.83,SSE,162,0.0,-999.0,93,-99.99,,,0.00,weatherlink.com 1.10,2013-08-30 10:19:00,
2013-08-30 06:34:00,67.6,66.0,29.83,SSE,162,0.0,-999.0,93,-99.99,,,0.00,weatherlink.com 1.10,2013-08-30 10:34:00,
2013-08-30 06:49:00,67.6,66.0,29.83,SSE,163,0.0,-999.0,94,-99.99,,,0.00,weatherlink.com 1.10,2013-08-30 10:49:00,
2013-08-30 07:04:00,67.5,66.0,29.83,SSE,163,0.0,-999.0,94,-99.99,,,0.00,weatherlink.com 1.10,2013-08-30 11:04:00,
2013-08-30 07:19:00,67.5,66.0,29.83,SSE,163,0.0,-999.0,94,-99.99,,,0.00,weatherlink.com 1.10,2013-08-30 11:19:00,
2013-08-30 07:34:00,67.5,66.0,29.84,SSE,163,0.0,-999.0,93,-99.99,,,0.00,weatherlink.com 1.10,2013-08-30 11:34:00,
2013-08-30 07:49:00,67.6,66.0,29.84,SSE,163,0.0,-999.0,93,-99.99,,,0.00,weatherlink.com 1.10,2013-08-30 11:49:00,
2013-08-30 08:04:00,68.0,66.0,29.84,SSE,162,0.0,-999.0,92,-99.99,,,0.00,weatherlink.com 1.10,2013-08-30 12:04:00,
2013-08-30 08:19:00,68.3,65.0,29.84,SSE,163,0.0,-999.0,90,-99.99,,,0.00,weatherlink.com 1.10,2013-08-30 12:19:00,
2013-08-30 08:34:00,68.8,66.0,29.84,SSE,163,0.0,-999.0,90,-99.99,,,0.00,weatherlink.com 1.10,2013-08-30 12:34:00,
2013-08-30 08:49:00,69.5,66.0,29.84,SSE,163,0.0,-999.0,89,-99.99,,,0.00,weatherlink.com 1.10,2013-08-30 12:49:00,
2013-08-30 09:04:00,70.5,67.0,29.84,SSE,163,0.0,-999.0,87,-99.99,,,0.00,weatherlink.com 1.10,2013-08-30 13:04:00,
2013-08-30 09:19:00,72.2,67.0,29.83,South,186,0.0,-999.0,83,-99.99,,,0.00,weatherlink.com 1.10,2013-08-30 13:19:00,
2013-08-30 09:34:00,74.4,68.0,29.82,SSW,207,0.0,-999.0,80,-99.99,,,0.00,weatherlink.com 1.10,2013-08-30 13:34:00,
2013-08-30 09:49:00,75.6,68.0,29.81,SW,224,0.0,-999.0,76,-99.99,,,0.00,weatherlink.com 1.10,2013-08-30 13:49:00,
2013-08-30 10:04:00,76.8,68.0,29.80,SW,219,0.0,-999.0,75,-99.99,,,0.00,weatherlink.com 1.10,2013-08-30 14:04:00,
2013-08-30 10:19:00,78.3,69.0,29.80,WSW,237,0.0,-999.0,74,-99.99,,,0.00,weatherlink.com 1.10,2013-08-30 14:19:00,
2013-08-30 10:34:00,79.0,69.0,29.80,SW,223,0.0,-999.0,72,-99.99,,,0.00,weatherlink.com 1.10,2013-08-30 14:34:00,
2013-08-30 10:49:00,79.5,69.0,29.78,SSW,210,2.0,-999.0,71,-99.99,,,0.00,weatherlink.com 1.10,2013-08-30 14:49:00,
2013-08-30 11:04:00,80.5,70.0,29.79,WSW,243,1.0,-999.0,70,-99.99,,,0.00,weatherlink.com 1.10,2013-08-30 15:04:00,
2013-08-30 11:19:00,80.8,70.0,29.78,WSW,238,8.0,-999.0,69,-99.99,,,0.00,weatherlink.com 1.10,2013-08-30 15:19:00,
2013-08-30 11:34:00,81.9,70.0,29.78,SW,231,0.0,-999.0,68,-99.99,,,0.00,weatherlink.com 1.10,2013-08-30 15:34:00,
2013-08-30 11:49:00,81.9,70.0,29.78,SSW,200,0.0,-999.0,68,-99.99,,,0.00,weatherlink.com 1.10,2013-08-30 15:49:00,
2013-08-30 12:04:00,81.9,70.0,29.78,SSW,211,0.0,-999.0,67,-99.99,,,0.00,weatherlink.com 1.10,2013-08-30 16:04:00,
2013-08-30 12:19:00,81.9,70.0,29.76,SW,229,1.0,-999.0,68,-99.99,,,0.00,weatherlink.com 1.10,2013-08-30 16:19:00,
2013-08-30 12:34:00,83.3,70.0,29.77,South,174,0.0,-999.0,65,-99.99,,,0.00,weatherlink.com 1.10,2013-08-30 16:34:00,
2013-08-30 12:49:00,83.3,70.0,29.77,SW,231,4.0,-999.0,65,-99.99,,,0.00,weatherlink.com 1.10,2013-08-30 16:49:00,
2013-08-30 13:04:00,84.5,72.0,29.77,SW,219,7.0,-999.0,66,-99.99,,,0.00,weatherlink.com 1.10,2013-08-30 17:04:00,
2013-08-30 13:19:00,83.7,69.0,29.76,WSW,255,0.0,-999.0,62,-99.99,,,0.00,weatherlink.com 1.10,2013-08-30 17:19:00,
2013-08-30 13:49:00,84.5,70.0,29.75,West,270,0.0,-999.0,61,-99.99,,,0.00,weatherlink.com 1.10,2013-08-30 17:49:00,
2013-08-30 14:04:00,84.7,69.0,29.75,SW,219,5.0,-999.0,59,-99.99,,,0.00,weatherlink.com 1.10,2013-08-30 18:04:00,
2013-08-30 14:19:00,85.2,70.0,29.74,SSW,205,10.0,-999.0,60,-99.99,,,0.00,weatherlink.com 1.10,2013-08-30 18:19:00,
2013-08-30 14:34:00,85.0,69.0,29.73,WSW,240,8.0,-999.0,58,-99.99,,,0.00,weatherlink.com 1.10,2013-08-30 18:34:00,
2013-08-30 14:49:00,85.2,68.0,29.72,WSW,250,0.0,-999.0,56,-99.99,,,0.00,weatherlink.com 1.10,2013-08-30 18:49:00,
2013-08-30 15:04:00,85.6,70.0,29.72,West,281,0.0,-999.0,59,-99.99,,,0.00,weatherlink.com 1.10,2013-08-30 19:04:00,
2013-08-30 15:19:00,85.6,68.0,29.70,South,188,13.0,-999.0,56,-99.99,,,0.00,weatherlink.com 1.10,2013-08-30 19:19:00,
2013-08-30 15:34:00,84.7,68.0,29.70,WSW,254,3.0,-999.0,57,-99.99,,,0.00,weatherlink.com 1.10,2013-08-30 19:34:00,
2013-08-30 15:49:00,84.3,67.0,29.70,SW,233,1.0,-999.0,57,-99.99,,,0.00,weatherlink.com 1.10,2013-08-30 19:49:00,
2013-08-30 16:04:00,84.3,68.0,29.69,West,271,1.0,-999.0,58,-99.99,,,0.00,weatherlink.com 1.10,2013-08-30 20:04:00,
2013-08-30 16:19:00,84.3,68.0,29.68,SW,233,0.0,-999.0,58,-99.99,,,0.00,weatherlink.com 1.10,2013-08-30 20:19:00,
2013-08-30 16:34:00,84.5,69.0,29.68,West,262,0.0,-999.0,60,-99.99,,,0.00,weatherlink.com 1.10,2013-08-30 20:34:00,
2013-08-30 16:49:00,84.1,69.0,29.67,SW,234,2.0,-999.0,61,-99.99,,,0.00,weatherlink.com 1.10,2013-08-30 20:49:00,
2013-08-30 17:04:00,83.9,67.0,29.67,WSW,240,14.0,-999.0,58,-99.99,,,0.00,weatherlink.com 1.10,2013-08-30 21:04:00,
2013-08-30 17:19:00,83.9,69.0,29.66,SSW,196,3.0,-999.0,62,-99.99,,,0.00,weatherlink.com 1.10,2013-08-30 21:19:00,
2013-08-30 17:34:00,83.9,68.0,29.66,SW,231,0.0,-999.0,60,-99.99,,,0.00,weatherlink.com 1.10,2013-08-30 21:34:00,
2013-08-30 17:49:00,83.9,69.0,29.65,WSW,257,3.0,-999.0,61,-99.99,,,0.00,weatherlink.com 1.10,2013-08-30 21:49:00,
2013-08-30 18:04:00,83.7,70.0,29.64,SW,217,0.0,-999.0,64,-99.99,,,0.00,weatherlink.com 1.10,2013-08-30 22:04:00,
2013-08-30 18:19:00,83.5,70.0,29.64,SW,224,0.0,-999.0,64,-99.99,,,0.00,weatherlink.com 1.10,2013-08-30 22:19:00,
2013-08-30 18:34:00,82.7,70.0,29.64,SW,234,0.0,-999.0,65,-99.99,,,0.00,weatherlink.com 1.10,2013-08-30 22:34:00,
2013-08-30 18:49:00,82.3,71.0,29.65,SW,222,0.0,-999.0,69,-99.99,,,0.00,weatherlink.com 1.10,2013-08-30 22:49:00,
2013-08-30 19:04:00,81.8,70.0,29.64,SW,224,0.0,-999.0,67,-99.99,,,0.00,weatherlink.com 1.10,2013-08-30 23:04:00,
2013-08-30 19:19:00,81.8,69.0,29.64,SW,214,0.0,-999.0,66,-99.99,,,0.00,weatherlink.com 1.10,2013-08-30 23:19:00,
2013-08-30 19:34:00,81.4,70.0,29.64,SSW,213,0.0,-999.0,68,-99.99,,,0.00,weatherlink.com 1.10,2013-08-30 23:34:00,
2013-08-30 19:49:00,80.8,70.0,29.64,SSW,213,0.0,-999.0,70,-99.99,,,0.00,weatherlink.com 1.10,2013-08-30 23:49:00,
2013-08-30 20:04:00,80.3,70.0,29.63,SW,227,0.0,-999.0,71,-99.99,,,0.00,weatherlink.com 1.10,2013-08-31 00:04:00,
2013-08-30 20:19:00,79.9,70.0,29.63,SW,227,0.0,-999.0,71,-99.99,,,0.00,weatherlink.com 1.10,2013-08-31 00:19:00,
2013-08-30 20:34:00,79.7,70.0,29.62,SW,227,0.0,-999.0,72,-99.99,,,0.00,weatherlink.com 1.10,2013-08-31 00:34:00,
2013-08-30 20:49:00,79.7,70.0,29.64,SW,227,0.0,-999.0,72,-99.99,,,0.00,weatherlink.com 1.10,2013-08-31 00:49:00,
2013-08-30 21:04:00,79.7,70.0,29.64,SW,227,0.0,-999.0,72,-99.99,,,0.00,weatherlink.com 1.10,2013-08-31 01:04:00,
2013-08-30 21:19:00,79.7,71.0,29.64,SW,227,0.0,-999.0,74,-99.99,,,0.00,weatherlink.com 1.10,2013-08-31 01:19:00,
2013-08-30 21:34:00,79.7,72.0,29.64,NW,319,0.0,-999.0,77,-99.99,,,0.01,weatherlink.com 1.10,2013-08-31 01:34:00,
2013-08-30 21:49:00,78.6,72.0,29.65,NNW,338,0.0,-999.0,81,-99.99,,,0.01,weatherlink.com 1.10,2013-08-31 01:49:00,
2013-08-30 22:04:00,77.2,73.0,29.65,NNW,340,0.0,-999.0,86,-99.99,,,0.10,weatherlink.com 1.10,2013-08-31 02:04:00,
2013-08-30 22:19:00,75.8,72.0,29.64,NNW,342,0.0,-999.0,89,-99.99,,,0.14,weatherlink.com 1.10,2013-08-31 02:19:00,
2013-08-30 22:34:00,75.4,73.0,29.64,NNW,344,0.0,-999.0,91,-99.99,,,0.32,weatherlink.com 1.10,2013-08-31 02:34:00,
2013-08-30 22:49:00,75.3,73.0,29.65,NNW,344,0.0,-999.0,93,-99.99,,,0.34,weatherlink.com 1.10,2013-08-31 02:49:00,
2013-08-30 23:04:00,75.1,73.0,29.66,NNW,344,0.0,-999.0,93,-99.99,,,0.34,weatherlink.com 1.10,2013-08-31 03:04:00,
2013-08-30 23:19:00,75.1,73.0,29.66,NNW,344,0.0,-999.0,94,-99.99,,,0.34,weatherlink.com 1.10,2013-08-31 03:19:00,
2013-08-30 23:34:00,74.9,73.0,29.66,NNW,344,0.0,-999.0,94,-99.99,,,0.34,weatherlink.com 1.10,2013-08-31 03:34:00,
2013-08-30 23:49:00,74.7,73.0,29.66,NNW,344,0.0,-999.0,94,-99.99,,,0.34,weatherlink.com 1.10,2013-08-31 03:49:00,